Terminal Aerodrome Forecast
Issued by NWS

Home | Current Version | Previous Version | Text Only | Print | Product List | Glossary On
Versions: 1 2 3 4 5 6 7 8 9 10 11 12 13 14 15 16 17 18 19 20 21 22 23 24 25 26 27 28 29 30 31 32 33
000
FTUS41 KBOX 271740
TAFHYA
TAF
KHYA 271740Z 2718/2818 22020KT P6SM OVC015
     FM272100 22019KT P6SM OVC025
     FM280000 22016KT P6SM OVC008
     FM280600 22014KT 1SM BR OVC003
     FM281300 21015KT 3SM BR BKN003=

USA.gov is the U.S. government's official web portal to all federal, state and local government web resources and services.